Location: ????????
(55.6333°N, 37.7000°E)
Time: 14:39:27
(UTC+00:00)

Cosmos 1536 - Pass Details

Date: 19 May 2025
Orbit: 494 x 518 km, 82.5° (Epoch: 20 June)

Event Time Altitude Azimuth Distance (km) Brightness Sun altitude
Rises 19:54:27 0° 344° (NNW) 2,649 8.4 -12.0°
Reaches altitude 10° 19:56:39 10° 338° (NNW) 1,752 6.9 -12.1°
Maximum altitude 20:00:19 44° 265° (W) 717 3.5 -12.3°
Enters shadow 20:03:16 14° 196° (SSW) 1,470 4.5 -12.4°
